Location: Bremen
(53.0793°N, 8.8017°E)
Time: 02:58:29
(UTC+01:00)

Vanguard 1 Rocket - Pass Details

Date: 07 December 2021
Orbit: 651 x 4225 km, 34.3° (Epoch: 26 January)

Event Time Altitude Azimuth Distance (km) Brightness Sun altitude
Rises 03:35:24 0° 237° (WSW) 4,620 - -41.7°
Reaches altitude 10° 03:38:15 10° 228° (SW) 4,009 - -41.3°
Exits shadow 03:46:15 34° 181° (S) 3,420 10.0 -40.2°
Maximum altitude 03:48:11 35° 167° (SSE) 3,565 10.2 -39.9°
Drops below altitude 10° 04:05:02 10° 112° (ESE) 6,755 12.3 -37.4°
Sets 04:11:49 0° 106° (ESE) 8,164 13.0 -36.4°
